Flag Weather past 2 weeks in Miskolc, Hungary

Now
29 °F

Passing clouds.


Feels Like: 29 °F
Forecast: 32 / 42 °F
Wind: No wind

Location: Miskolc

Current Time: Nov 24, 2014 at 10:53:17 PM

Latest Report: Nov 24, 2014 at 10:00 PM


Visibility: 4 mi

Pressure: 30.43 "Hg

Humidity: 91%

Dew point: 27 °F

Location of MiskolcLocation

Historic Weather in Miskolc — Graph

°F

Miskolc temperature yesterday

Maximum temperature yesterday: 45 °F (at 1:00 PM)
Minimum temperature yesterday: 33 °F (at 11:00 PM)
Average temperature yesterday: 40 °F

Past Weeks' High & Low Weather Summary

 TemperatureHumidityPressure
High57 °F (Nov 13, 1:00 PM)94% (Nov 10, 11:00 PM)30.47 "Hg (Nov 10, 11:00 PM)
Low28 °F (Nov 24, 7:00 AM)55% (Nov 23, 3:00 PM)29.87 "Hg (Nov 16, 3:00 PM)
Average45 °F86%30.10 "Hg
* Reported Nov 9 9:00 PM — Nov 24 9:00 PM, Miskolc, Weather by CustomWeather, © 2014

Note: Actual official high and low records may vary slightly from our data, if they occured in-between our weather recording intervals... More about our weather records

Advertising

Miskolc weather history for previous 24 hours

 ConditionsComfort  
Time TempWeatherWind HumidityBarometerVisibility
9:00 PM
Nov 24
30 °FPassing clouds.No wind90%30.42 "Hg4 mi
8:00 PM31 °FPassing clouds.1 mph89%30.42 "Hg4 mi
7:00 PM31 °FPassing clouds.No wind88%30.42 "Hg4 mi
6:00 PM33 °FClear.1 mph86%30.41 "Hg4 mi
5:00 PM34 °FClear.No wind83%30.39 "Hg5 mi
4:00 PM38 °FClear.No wind75%30.39 "Hg5 mi
3:00 PM41 °FPassing clouds.1 mph70%30.38 "Hg7 mi
2:00 PM41 °FPassing clouds.1 mph67%30.38 "Hg6 mi
1:00 PM42 °FPassing clouds.1 mph66%30.39 "Hg5 mi
12:00 PM40 °FPassing clouds.1 mph68%30.40 "Hg5 mi
11:00 AM39 °FPassing clouds.1 mph73%30.42 "Hg4 mi
10:00 AM36 °FPartly sunny.1 mph77%30.42 "Hg5 mi
9:00 AM33 °FPassing clouds.No wind91%30.42 "Hg5 mi
8:00 AM29 °FSunny.No wind91%30.43 "Hg7 mi
7:00 AM28 °FSunny.1 mph91%30.43 "Hg6 mi
6:00 AM28 °FClear.1 mph91%30.42 "Hg6 mi
5:00 AM29 °FClear.No wind91%30.42 "Hg5 mi
4:00 AM29 °FClear.No wind90%30.43 "Hg5 mi
3:00 AM30 °FClear.No wind90%30.43 "Hg7 mi
2:00 AM31 °FClear.1 mph89%30.44 "Hg7 mi
1:00 AM31 °FClear.No wind89%30.45 "Hg7 mi
12:00 AM32 °FPassing clouds.1 mph89%30.47 "Hg7 mi
11:00 PM
Nov 23
33 °FPassing clouds.No wind87%30.46 "Hg7 mi
10:00 PM35 °FPassing clouds.1 mph84%30.46 "Hg7 mi
Weather by CustomWeather, © 2014

See weather overviewHow to use our weather pages